Tufão WAYNE 1983: trajetória, intensidade e histórico
26/07/1983, 00:00:00
20/07/1983, 00:00:00 – 26/07/1983, 00:00:00
Trajetória histórica
Acompanhe a evolução e o deslocamento de Tufão WAYNE em 1983, com a trajetória completa registrada, ventos máximos sustentados de 135 nós, pressão central mínima e cronologia detalhada.
| Data | Hora | Tipo | Ventokm/h | PressãohPa |
|---|---|---|---|---|
| 26/07 | 00:00 | TDDepressão tropical | 45 | 1000 |
| 25/07 | 21:00 | TDDepressão tropical | 55 | 996 |
| 25/07 | 18:00 | TDDepressão tropical | 55 | 996 |
| 25/07 | 15:00 | TSTempestade tropical | 70 | 983 |
| 25/07 | 12:00 | TTufão | 85 | 980 |
| 25/07 | 09:00 | STSTempestade tropical severa | 115 | 963 |
| 25/07 | 06:00 | TTufão | 150 | 960 |
| 25/07 | 03:00 | TTufão | 165 | 948 |
| 25/07 | 00:00 | TTufão | 175 | 950 |
| 24/07 | 21:00 | STSupertufão | 190 | 940 |
| 24/07 | 18:00 | STSupertufão | 205 | 940 |
| 24/07 | 15:00 | STSupertufão | 215 | 930 |
| 24/07 | 12:00 | STSupertufão | 220 | 930 |
| 24/07 | 09:00 | STSupertufão | 235 | 923 |
| 24/07 | 06:00 | STSupertufão | 250 | 920 |
| 24/07 | 03:00 | STSupertufão | 235 | 920 |
| 24/07 | 00:00 | STSupertufão | 220 | 920 |
| 23/07 | 21:00 | STSupertufão | 205 | 919 |
| 23/07 | 18:00 | STSupertufão | 185 | 945 |
| 23/07 | 15:00 | TTufão | 165 | 915 |
| 23/07 | 12:00 | TTufão | 150 | 965 |
| 23/07 | 09:00 | TTufão | 135 | 946 |
| 23/07 | 06:00 | TTufão | 120 | 985 |
| 23/07 | 03:00 | STSTempestade tropical severa | 110 | 984 |
| 23/07 | 00:00 | STSTempestade tropical severa | 100 | 990 |
| 22/07 | 21:00 | STSTempestade tropical severa | 100 | 989 |
| 22/07 | 18:00 | TSTempestade tropical | 95 | 998 |
| 22/07 | 15:00 | TSTempestade tropical | 85 | 993 |
| 22/07 | 12:00 | TDDepressão tropical | 75 | 1002 |
| 22/07 | 09:00 | TSTempestade tropical | 65 | 998 |
| 22/07 | 06:00 | TDDepressão tropical | 55 | 1004 |
| 22/07 | 03:00 | TDDepressão tropical | 50 | 1001 |
| 22/07 | 00:00 | TDDepressão tropical | 45 | 1008 |
| 21/07 | 21:00 | TDDepressão tropical | 45 | 1003 |
| 21/07 | 18:00 | TDDepressão tropical | 45 | 1004 |
| 21/07 | 15:00 | TDDepressão tropical | 45 | 1004 |
| 21/07 | 12:00 | TDDepressão tropical | 45 | 1004 |
| 21/07 | 09:00 | TDDepressão tropical | 45 | 1004 |
| 21/07 | 06:00 | TDDepressão tropical | 45 | 1004 |
| 21/07 | 03:00 | TDDepressão tropical | 45 | 1004 |
| 21/07 | 00:00 | TDDepressão tropical | 45 | 1004 |
| 20/07 | 21:00 | TDDepressão tropical | 45 | 1005 |
| 20/07 | 18:00 | TDDepressão tropical | 35 | 1005 |
| 20/07 | 15:00 | TDDepressão tropical | 35 | 1005 |
| 20/07 | 12:00 | TDDepressão tropical | 35 | 1005 |
| 20/07 | 09:00 | TDDepressão tropical | 35 | 1005 |
| 20/07 | 06:00 | TDDepressão tropical | 35 | 1005 |
| 20/07 | 03:00 | TDDepressão tropical | 35 | 1005 |
| 20/07 | 00:00 | TDDepressão tropical | 35 | 1005 |
Cronologia de localização
49 Registos de localizaçãoTambém pode encontrar estas ferramentas úteis
A localização, a extensão e o estado de cada evento podem ser atualizados em momentos diferentes consoante a fonte. Confirme decisões importantes junto das autoridades oficiais de emergência.
Os registos de eventos provêm da NASA EONET e são complementados por registos de deslizamentos de terra do USGS FDSN. As análises e previsões de tempestades podem utilizar a NOAA NHC ou o JTWC, com registos históricos ATCF da UCAR/NCAR quando disponíveis. As imagens de satélite provêm da NASA Worldview/GIBS (GOES e Himawari) ou da EUMETSAT Meteosat, consoante a cobertura do mapa.
Fontes: NASA EONET · USGS · NOAA NHC · JTWC · UCAR/NCAR ATCF · NASA Worldview/GIBS · EUMETSAT Meteosat · OpenStreetMap contributors